Regional Weather Roundup
Issued by NWS

Home | Current Version | Previous Version | Graphics & Text | Print | Product List | Glossary On
Versions: 1 2 3 4 5 6 7 8 9 10 11 12 13 14 15 16 17 18 19 20 21 22 23 24 25 26 27 28 29 30 31 32 33 34 35 36 37 38 39 40 41 42 43 44 45 46 47 48 49 50
000
ASUS43 KLMK 260802
RWRKY
KENTUCKY REGIONAL WEATHER ROUNDUP
NATIONAL WEATHER SERVICE LOUISVILLE KY
400 AM EDT SUN OCT 26 2014

NOTE "FAIR" INDICATES FEW OR NO CLOUDS BELOW 12,000 FEET
WITH NO SIGNIFICANT WEATHER AND/OR OBSTRUCTIONS TO VISIBILITY.

KYZ001>023-026-027-061>063-070>075-260900-
WESTERN AND SOUTH CENTRAL KENTUCKY

CITY           SKY/WX    TMP DP  RH WIND       PRES   REMARKS
PADUCAH        PTCLDY    54  53  97 CALM      30.00R FOG
HENDERSON      CLEAR    N/A N/A N/A W5        30.01R
OWENSBORO      CLEAR     52  51  96 CALM      30.01R
HOPKINSVILLE   FOG       54  54 100 CALM      30.01S VSB 1/4
BOWLING GREEN  FOG       53  51  93 CALM      30.01R VSB 1/4
GLASGOW        NOT AVBL
$$

KYZ024-025-028>034-038-045-046-053-260900-
NORTH CENTRAL KENTUCKY

CITY           SKY/WX    TMP DP  RH WIND       PRES   REMARKS
LOUISVILLE/SDF CLEAR     53  50  89 NW8       29.99R
LOUISVILLE/LOU CLEAR     51  49  92 CALM      29.99R
FORT KNOX      CLEAR     53  49  89 W3        29.99R
$$

KYZ035>037-039>044-047>052-055>060-089>105-260900-
NORTHEAST KENTUCKY

CITY           SKY/WX    TMP DP  RH WIND       PRES   REMARKS
LEXINGTON      CLEAR     59  50  72 W5        29.97S
COVINGTON      CLEAR     54  34  46 W6        29.96S
FRANKFORT      CLEAR     54  49  83 NW5       29.97S
$$

KYZ054-064>069-076>088-106>120-260900-
SOUTHEAST KENTUCKY

CITY           SKY/WX    TMP DP  RH WIND       PRES   REMARKS
JACKSON        CLEAR     59  53  80 VRB3      29.96S
LONDON         FOG       50  47  89 CALM      29.99S VSB 1/4
SOMERSET       FOG       48  48 100 CALM      30.01S VSB 1/4
MIDDLESBORO    CLEAR     46  45  97 CALM      30.00S FOG
MONTICELLO     FOG       44  44 100 CALM      30.02S VSB<1/4
$$




USA.gov is the U.S. government's official web portal to all federal, state and local government web resources and services.